Погода Конево

Погода Конево : погода сейчас, прогноз погоды и архив. Всё, что Вы хотите узнать о погоде Конево!

Поиск расширенной информации на нашем сайте:

Другие новости

Новости СМИ2

Главная страница сайта

Новости сайта

03.07.2017

Напоминаем, что на нашем специализированном сайте Метеоцентр.Азия вы можете получить высокодетализированные автоматические прогнозы погоды по пунктам России, СНГ и мира в авиационном формате (включающие направление и скорость ветра, видимость, явления погоды, количество и форму облачности, нижнюю и верхнюю границу облачности).


Погода Конево - сегодня

Время (UTC), дата Ветер
(°,м/с) 
Видим.   Явления Облачность Т
(°С)
Тd
(°С)
f(%) Тe
(°С)
Pmin
(гПа)
dP
(гПа)
Po
(мм)
O2
(г/м3)
Тmin Tmax R s Состояние
почвы
15 14.10.17 070 (В) 4000 м  слаб. дождь  10/10 300 м 
[Frnb|Ns]
+5.7 +5.7 100 +7  1007.4  746  294    +6     
18 14.10.17 070 (В) 4000 м  слаб. дождь  10/10 330 м 
[Frnb|Ns]
+5.7 +5.7 100 +7  1006.2  -1.3  745  293           
21 14.10.17 тихо ()   4000 м  слаб. дождь  10/10 300 м 
[Frnb|Ns]
+5.6 +5.6 100 +6  1004.6  -1.6  744  293           
00 15.10.17 060 (СВ) 4000 м  слаб. дождь  10/10 240 м 
[Frnb|Ns]
+5.5 +5.5 100 +6  1002.6  -1.9  743  292           
03 15.10.17 тихо ()   4000 м  слаб. дождь  10/10 270 м 
[Frnb|Ns]
+5.5 +5.5 100 +6  1001.2  -1.4  742  292  +5.4       
06 15.10.17 050 (СВ) 4000 м  слаб. дождь  10/10 210 м 
[Frnb|Ns]
+5.7 +5.7 100 +7  1000.5  -0.6  741  292           
09 15.10.17 340 (С) 10 км  в посл. час дождь  10/10 270 м 
[St]
+6.8 +6.8 100 +8  1001  0.5  742  290           
12 15.10.17 340 (С) 4000 м  слаб. ливневой дождь  10/10 420 м кучево-дожд. 
[Cb cap]
+6.2 +6.2 100 +6  1002.4  1.3  743  292           
15 15.10.17 320 (СЗ) 10 км  {ливн. осадки}  10/10 240 м 
[St]
+5.9 +5.9 100 +7  1004.3  1.9  744  293    +7.4  14     
18 15.10.17 360 (С) 10 км  {ливн. осадки}  10/10 240 м 
[St]
+5.8 +5.8 100 +7  1005.6  745  293           
21 15.10.17 340 (С) 10 км    10/10 360 м 
[St]
+5.9 +5.9 100 +5  1006.7  1.3  746  293           
00 16.10.17 010 (С) 20000 м    10/10 800 м 
[Sc]
+5.6 +5.6 100 +5  1008  1.3  747  294           
03 16.10.17 340 (С) 20000 м    10/10 480 м 
[Sc]
+5.3 +5.3 100 +5  1009  0.9  748  295  +5.3         
06 16.10.17 310 (СЗ) 10 км  слаб. морось  10/10 300 м 
[St]
+4.7 +4.7 100 +4  1009.4  0.4  748  295  +4.7         
09 16.10.17 300 (СЗ) 20000 м  {морось}  10/10 400 м 
[St]
+5.2 +5.1 99 +4  1009.9  0.5  748  295           
12 16.10.17 280 (З) 20000 м  {морось}  10/10 400 м 
[St]
+5.7 +4.5 92 +5  1008.8  -1  747  294           
15 16.10.17 220 (ЮЗ) 20000 м    10/10 630 м 
[Sc]
+4.6 +3.2 91 +3  1007.7  -1.1  747  295    +5.8  0.0     
18 16.10.17 210 (ЮЗ) 20000 м    10/10 630 м 
[Sc]
+4.2 +3.2 93 +2  1003.4  -4.2  743  294           
21 16.10.17 190 (Ю) 6-10{10}  4000 м  слаб. ливневой дождь  10/10 420 м кучево-дожд. 
[Cb cap]
+3.5 +3.5 100 +1  997.8  -5.6  739  294           
00 17.10.17 240 (ЮЗ) 4{12}  4000 м  слаб. дождь{ливн. осадки}  10/10 300 м 
[Frnb|Ns]
+4.4 +4.4 100 +3  994.9  -2.8  737  292           
03 17.10.17 270 (З) 20000 м  {дождь}  10/10 400 м 
[St]
+6.3 +5.8 97 +4  994.7  0.1  737  289  +3.5       
06 17.10.17 270 (З) 6-10{12}  20000 м  в посл. час ливневой дождь  9/8 630 м кучево-дожд., средняя 
[Cb cap|Ac As]
+5.3 +4.3 93 +3  995  0.3  737  291           
09 17.10.17 270 (З) 7-12{12}  20000 м  в посл. час ливневой дождь  10/8 300 м кучево-дожд., средняя 
[Cb cap|Ac As]
+6 +4.2 88 +3  994.8  -0.2  737  290           
12 17.10.17 300 (СЗ) 7-13{13}  20000 м  в посл. час ливневой дождь  10/8 300 м кучево-дожд., средняя 
[Cb cap|Ac As]
+4.9 +4 94 +2  996.4  1.6  738  292           
15 17.10.17 300 (СЗ) 6-10{13}  20000 м  {ливн. осадки}  9/6 300 м кучево-дожд., средняя 
[Cb cap|Ac As]
+5 +4 93 +2  998  1.5  739  292    +6.3     
Время (UTC), дата Ветер
(°,м/с) 
Видим.   Явления Облачность Т
(°С)
Тd
(°С)
f(%) Тe
(°С)
Pmin
(гПа)
dP
(гПа)
Po
(мм)
O2
(г/м3)
Тmin Tmax R s Состояние
почвы

Для получения пояснительной информации подведите курсор к названию столбца.

ПОГОДА Конево - архив

Всё, что Вы хотите узнать о погоде Конево - удобно и подробно!

Выберите нужную дату (начиная с 1 января 2015* года) и нажмите кнопку "Найти".
Будут отображены архивные сводки погоды по пункту Конево, начиная с указанной даты.


Отображать данные в формате CSV (для использования в таблицах Excel)


Внимание! Наш архив погоды предназначен исключительно для личного некоммерческого использования в познавательных целях. Если Вам необходимы официальные справки о состоянии погоды (для производственных, юридических, коммерческих и т.п. целей), обращайтесь в органы Росгидромета.

*Примечание: данная дата относится к архиву по метеостанциям СССР (Россия, СНГ, Балтия).
Архив по метеостанциям Зарубежной Европы и Азии (кроме Китая) хранится 10 дней, по другим регионам земного шара (Китай, Африка, Америка, Австралия, Океания) - 1 день.

Конево - район местоположения метеостанции


Название, широта, долгота, высота метеостанции:
Конево 62.1°ш. 39.3°д. 100 м над ур. моря [Российская Федерация]

Дополнительная информация

В oтличие oт бoльшинства пoгoдных сайтoв мы публикуем пoдрoбную метеoинфoрмацию в детальнoм прoфессиoнальнoм фoрмате.

Характеристики температуры и влажнoсти вoздуха измеряются на высoте 2 м в тени вдали oт зданий и деревьев.
Скoрoсть ветра измеряется на высoте 10 м (на урoвне рoста челoвека скoрoсть ветра ниже в 1.5-2 раза). Если метеoстанция нахoдится в гoрoде или в лесу, тo скoрoсть ветра занижена на 2-4 м/с пo сравнению с oткрытым местoм. Скoрoсть ветра над акватoриями крупных рек и oзёр, а также на вершинах хoлмoв на 2-5 м/с выше, чем в oбычных услoвиях.
Атмoсфернoе давление в разных тoчках местнoсти мoжет значительнo oтличаться oт давления на метеoстанции, в зависимoсти oт услoвий рельефа (при пoдъёме на 10 м давление пoнижается примернo на 1 мм рт.ст.).